Location: Gad�tanya
(48.0500°N, 20.8500°E)
Time: 10:51:07
(UTC+00:00)

Cosmos 2084 - Pass Details

Date: 05 July 2020
Orbit: 571 x 612 km, 62.8° (Epoch: 14 August)

Event Time Altitude Azimuth Distance (km) Brightness Sun altitude
Rises 20:01:15 0° 319° (NW) 2,885 9.2 -10.7°
Reaches altitude 10° 20:03:34 10° 322° (NW) 1,977 7.8 -10.9°
Maximum altitude 20:08:01 65° 45° (NE) 676 3.8 -11.4°
Enters shadow 20:11:34 16° 125° (SE) 1,625 5.1 -11.7°
